When you browse on this site, cookies collect data to enhance your experience and personalize the content and advertising you see.
Visit our Privacy Policy to learn more. By continuing to use the site, you agree to this use of cookies and data.
  • In France
  • List of Countries
  • For 7 days
  • Water Temperature
  • Satellite Maps
  • Weather Map
  • Weather Widgets
  • user-avatar
    Login

    Hourly Weather Pernik

    Today, 25 May, Saturday

    Time Temperature Precipitation Wind Pressure Humidity
    00:00 +9°C° 0 mm 1 mps 687 mmHg 90%
    01:00 +8°C° 0 mm 1 mps 687 mmHg 90%
    02:00 +8°C° 0 mm 1 mps 688 mmHg 91%
    03:00 +8°C° 0 mm 1 mps 688 mmHg 91%
    04:00 +8°C° 0 mm 1 mps 688 mmHg 91%
    05:00 +7°C° 0 mm 1 mps 688 mmHg 91%
    06:00 +10°C° 0 mm 1 mps 688 mmHg 84%
    07:00 +12°C° 0 mm 1 mps 689 mmHg 78%
    08:00 +14°C° 0 mm 2 mps 689 mmHg 71%
    09:00 +15°C° 0 mm 2 mps 690 mmHg 66%
    10:00 +17°C° 0 mm 3 mps 690 mmHg 61%
    11:00 +18°C° 0 mm 3 mps 690 mmHg 56%
    12:00 +19°C° 0.1 mm 3 mps 690 mmHg 54%
    13:00 +19°C° 0.1 mm 3 mps 690 mmHg 52%
    14:00 +20°C° 0.1 mm 4 mps 690 mmHg 51%
    15:00 +20°C° 0.1 mm 3 mps 690 mmHg 52%
    16:00 +20°C° 0.1 mm 3 mps 690 mmHg 53%
    17:00 +20°C° 0.1 mm 3 mps 690 mmHg 55%
    18:00 +18°C° 0 mm 2 mps 689 mmHg 62%
    19:00 +16°C° 0 mm 2 mps 689 mmHg 70%
    20:00 +14°C° 0 mm 1 mps 689 mmHg 77%
    21:00 +13°C° 0 mm 1 mps 690 mmHg 80%
    22:00 +12°C° 0 mm 1 mps 690 mmHg 83%
    23:00 +11°C° 0 mm 1 mps 690 mmHg 86%

    Tomorrow, 26 May, Sunday

    Time Temperature Precipitation Wind Pressure Humidity
    00:00 +11°C° 0 mm 1 mps 690 mmHg 86%
    01:00 +11°C° 0 mm 1 mps 690 mmHg 87%
    02:00 +10°C° 0 mm 1 mps 690 mmHg 87%
    03:00 +10°C° 0 mm 1 mps 690 mmHg 87%
    04:00 +10°C° 0 mm 1 mps 690 mmHg 86%
    05:00 +10°C° 0 mm 1 mps 690 mmHg 86%
    06:00 +11°C° 0 mm 0 mps 690 mmHg 78%
    07:00 +13°C° 0 mm 0 mps 691 mmHg 71%
    08:00 +16°C° 0 mm 0 mps 691 mmHg 63%
    09:00 +18°C° 0 mm 0 mps 692 mmHg 56%
    10:00 +20°C° 0 mm 0 mps 692 mmHg 49%
    11:00 +22°C° 0 mm 0 mps 693 mmHg 42%
    12:00 +25°C° 0 mm 1 mps 693 mmHg 40%
    13:00 +25°C° 0 mm 1 mps 692 mmHg 37%
    14:00 +26°C° 0 mm 1 mps 692 mmHg 34%
    15:00 +26°C° 0 mm 1 mps 692 mmHg 36%
    16:00 +26°C° 0 mm 1 mps 692 mmHg 37%
    17:00 +25°C° 0 mm 1 mps 692 mmHg 38%
    18:00 +23°C° 0 mm 1 mps 691 mmHg 45%
    19:00 +21°C° 0 mm 1 mps 691 mmHg 52%
    20:00 +19°C° 0 mm 1 mps 691 mmHg 59%
    21:00 +16°C° 0 mm 1 mps 691 mmHg 65%
    22:00 +15°C° 0 mm 1 mps 691 mmHg 71%
    23:00 +14°C° 0 mm 1 mps 691 mmHg 76%

    Day after tomorrow, 27 May, Monday

    Time Temperature Precipitation Wind Pressure Humidity
    00:00 +14°C° 0 mm 1 mps 691 mmHg 79%
    01:00 +13°C° 0 mm 1 mps 691 mmHg 81%
    02:00 +13°C° 0 mm 1 mps 690 mmHg 84%
    03:00 +12°C° 0 mm 1 mps 690 mmHg 85%
    04:00 +12°C° 0 mm 1 mps 690 mmHg 86%
    05:00 +12°C° 0 mm 1 mps 690 mmHg 86%
    06:00 +14°C° 0 mm 1 mps 691 mmHg 79%
    07:00 +16°C° 0 mm 1 mps 691 mmHg 72%
    08:00 +20°C° 0 mm 1 mps 692 mmHg 65%
    09:00 +21°C° 0 mm 1 mps 692 mmHg 59%
    10:00 +23°C° 0 mm 2 mps 692 mmHg 53%
    11:00 +24°C° 0 mm 2 mps 692 mmHg 48%
    12:00 +25°C° 0 mm 2 mps 692 mmHg 46%
    13:00 +25°C° 0 mm 2 mps 692 mmHg 45%
    14:00 +26°C° 0 mm 3 mps 691 mmHg 44%
    15:00 +25°C° 0 mm 2 mps 691 mmHg 47%
    16:00 +24°C° 0 mm 2 mps 691 mmHg 51%
    17:00 +24°C° 0 mm 2 mps 690 mmHg 54%
    18:00 +21°C° 0 mm 2 mps 690 mmHg 58%
    19:00 +19°C° 0 mm 2 mps 690 mmHg 63%
    20:00 +18°C° 0 mm 2 mps 689 mmHg 67%
    21:00 +17°C° 0 mm 2 mps 689 mmHg 71%
    22:00 +15°C° 0 mm 1 mps 689 mmHg 75%
    23:00 +14°C° 0 mm 1 mps 689 mmHg 79%

    28 May, Tuesday

    Time Temperature Precipitation Wind Pressure Humidity
    00:00 +14°C° 0 mm 1 mps 688 mmHg 77%
    01:00 +13°C° 0 mm 1 mps 688 mmHg 75%
    02:00 +12°C° 0 mm 1 mps 688 mmHg 72%
    03:00 +12°C° 0 mm 1 mps 688 mmHg 69%
    04:00 +12°C° 0 mm 1 mps 688 mmHg 65%
    05:00 +11°C° 0 mm 1 mps 687 mmHg 62%
    06:00 +14°C° 0 mm 1 mps 688 mmHg 57%
    07:00 +16°C° 0 mm 2 mps 688 mmHg 52%
    08:00 +19°C° 0 mm 2 mps 689 mmHg 47%
    09:00 +21°C° 0 mm 3 mps 689 mmHg 42%
    10:00 +23°C° 0 mm 4 mps 689 mmHg 38%
    11:00 +26°C° 0 mm 5 mps 689 mmHg 34%
    12:00 +26°C° 0 mm 5 mps 689 mmHg 33%
    13:00 +26°C° 0 mm 6 mps 688 mmHg 32%
    14:00 +27°C° 0 mm 6 mps 688 mmHg 32%
    15:00 +26°C° 0 mm 6 mps 688 mmHg 35%
    16:00 +26°C° 0 mm 6 mps 687 mmHg 38%
    17:00 +24°C° 0 mm 6 mps 687 mmHg 41%
    18:00 +22°C° 0 mm 5 mps 687 mmHg 48%
    19:00 +20°C° 0 mm 4 mps 687 mmHg 55%
    20:00 +18°C° 0 mm 3 mps 687 mmHg 63%
    21:00 +17°C° 0 mm 3 mps 687 mmHg 66%
    22:00 +16°C° 0 mm 3 mps 687 mmHg 69%
    23:00 +14°C° 0 mm 3 mps 687 mmHg 72%

    29 May, Wednesday

    Time Temperature Precipitation Wind Pressure Humidity
    00:00 +14°C° 0 mm 2 mps 687 mmHg 74%
    01:00 +14°C° 0 mm 2 mps 687 mmHg 77%
    02:00 +13°C° 0 mm 2 mps 687 mmHg 79%
    03:00 +13°C° 0 mm 1 mps 687 mmHg 82%
    04:00 +12°C° 0 mm 1 mps 687 mmHg 85%
    05:00 +12°C° 0 mm 1 mps 687 mmHg 88%
    06:00 +14°C° 0 mm 1 mps 688 mmHg 80%
    07:00 +16°C° 0 mm 1 mps 689 mmHg 73%
    08:00 +19°C° 0 mm 1 mps 689 mmHg 65%
    09:00 +20°C° 0 mm 1 mps 690 mmHg 59%
    10:00 +21°C° 0 mm 2 mps 690 mmHg 53%
    11:00 +24°C° 0 mm 2 mps 690 mmHg 47%
    12:00 +24°C° 0 mm 2 mps 690 mmHg 46%
    13:00 +25°C° 0 mm 2 mps 690 mmHg 44%
    14:00 +25°C° 0 mm 2 mps 690 mmHg 43%
    15:00 +25°C° 0 mm 2 mps 690 mmHg 44%
    16:00 +25°C° 0 mm 2 mps 690 mmHg 45%
    17:00 +25°C° 0 mm 2 mps 690 mmHg 46%
    18:00 +23°C° 0 mm 2 mps 690 mmHg 54%
    19:00 +21°C° 0 mm 1 mps 690 mmHg 62%
    20:00 +19°C° 0 mm 1 mps 690 mmHg 70%
    21:00 +18°C° 0 mm 1 mps 690 mmHg 74%
    22:00 +16°C° 0 mm 1 mps 691 mmHg 78%
    23:00 +15°C° 0 mm 1 mps 691 mmHg 82%

    30 May, Thursday

    Time Temperature Precipitation Wind Pressure Humidity
    00:00 +14°C° 0 mm 1 mps 691 mmHg 84%
    01:00 +14°C° 0 mm 1 mps 691 mmHg 85%
    02:00 +14°C° 0 mm 1 mps 691 mmHg 86%
    03:00 +14°C° 0 mm 1 mps 691 mmHg 86%
    04:00 +12°C° 0 mm 0 mps 691 mmHg 86%
    05:00 +12°C° 0 mm 0 mps 691 mmHg 86%
    06:00 +15°C° 0 mm 1 mps 692 mmHg 78%
    07:00 +18°C° 0 mm 1 mps 692 mmHg 71%
    08:00 +20°C° 0 mm 1 mps 693 mmHg 63%
    09:00 +22°C° 0 mm 1 mps 693 mmHg 59%
    10:00 +23°C° 0 mm 1 mps 693 mmHg 54%
    11:00 +25°C° 0 mm 1 mps 693 mmHg 50%
    12:00 +26°C° 0.1 mm 1 mps 693 mmHg 47%
    13:00 +27°C° 0.1 mm 1 mps 693 mmHg 45%
    14:00 +25°C° 0.1 mm 0 mps 692 mmHg 42%
    15:00 +25°C° 0.1 mm 0 mps 692 mmHg 44%
    16:00 +24°C° 0.1 mm 0 mps 692 mmHg 45%
    17:00 +26°C° 0.1 mm 1 mps 692 mmHg 46%
    18:00 +23°C° 0.1 mm 1 mps 691 mmHg 53%
    19:00 +21°C° 0.1 mm 1 mps 691 mmHg 61%
    20:00 +19°C° 0.1 mm 1 mps 690 mmHg 68%
    21:00 +18°C° 0.1 mm 1 mps 690 mmHg 72%
    22:00 +16°C° 0.1 mm 1 mps 690 mmHg 76%
    23:00 +15°C° 0.1 mm 1 mps 690 mmHg 80%
    Show more